This is the latest recevied weather packets stored in our database for station/object N8TWM-13. If no packets are shown the sender has not sent any weather packets the latest 10 day(s).
| Time | Temp. | Humidity | Pressure | Rain* | Wind** | Luminosity | Snow |
|---|---|---|---|---|---|---|---|
| 1778035985 | 8.89° C | 97% | 1009.3 hPa | 3.05 mm | - | 0 W/m² | - |
| 1778035682 | 8.89° C | 97% | 1009.2 hPa | 3.05 mm | - | 0 W/m² | - |
| 1778035379 | 8.89° C | 97% | 1009.5 hPa | 3.05 mm | - | 0 W/m² | - |
| 1778035074 | 8.89° C | 96% | 1009.4 hPa | 3.05 mm | - | 0 W/m² | - |
| 1778034772 | 9.44° C | 96% | 1009.2 hPa | 3.05 mm | - | 0 W/m² | - |
| 1778034468 | 9.44° C | 97% | 1009.1 hPa | 1.78 mm | - | 0 W/m² | - |
| 1778034167 | 9.44° C | 96% | 1009.3 hPa | 3.05 mm | - | 0 W/m² | - |
| 1778033864 | 10° C | 97% | 1009.2 hPa | 6.1 mm | - | 0 W/m² | - |
| 1778033561 | 10° C | 97% | 1009.2 hPa | 7.87 mm | - | 0 W/m² | - |
| 1778033258 | 10° C | 97% | 1009.2 hPa | 6.1 mm | - | 0 W/m² | - |
| 1778032956 | 10° C | 96% | 1008.9 hPa | 6.1 mm | - | 0 W/m² | - |
| 1778032653 | 10° C | 96% | 1008.9 hPa | 4.83 mm | - | 0 W/m² | - |
| 1778032350 | 10° C | 96% | 1008.9 hPa | 4.83 mm | - | 0 W/m² | - |
| 1778032047 | 10° C | 96% | 1008.4 hPa | 4.83 mm | - | 0 W/m² | - |
| 1778031743 | 10° C | 96% | 1008.7 hPa | 3.05 mm | - | 0 W/m² | - |
| 1778031441 | 10° C | 96% | 1008.8 hPa | 4.83 mm | - | 0 W/m² | - |
| 1778031138 | 10° C | 96% | 1008.7 hPa | 4.83 mm | - | 0 W/m² | - |
| 1778030834 | 10° C | 96% | 1008.6 hPa | 4.32 mm | - | 0 W/m² | - |
| 1778030531 | 10° C | 96% | 1008.4 hPa | 6.1 mm | - | 0 W/m² | - |
| 1778030228 | 10° C | 96% | 1008.5 hPa | 4.83 mm | - | 0 W/m² | - |
| 1778029925 | 10° C | 96% | 1008.5 hPa | 4.83 mm | - | 0 W/m² | - |
| 1778029623 | 10° C | 96% | 1008.1 hPa | 6.1 mm | - | 0 W/m² | - |
| 1778029320 | 10° C | 96% | 1008.3 hPa | 6.1 mm | - | 0 W/m² | - |
| 1778029017 | 10° C | 96% | 1008.6 hPa | 8.89 mm | - | 0 W/m² | - |
| 1778028714 | 10° C | 96% | 1008.5 hPa | 13.72 mm | - | 0 W/m² | - |
* Rain latest hour (hover to see other rain measurements)
** Current wind speed in m/s (hover to see current wind gust speed)